Year,Month,Day,Hour,Minute,Value (Times are PST for temperature in C)
2021,01,28,00,00,1.30
2021,01,28,00,02,1.30
2021,01,28,00,03,1.30
2021,01,28,00,04,1.30
2021,01,28,00,05,1.30
2021,01,28,00,06,1.30
2021,01,28,00,09,1.30
2021,01,28,00,10,1.30
2021,01,28,00,11,1.30
2021,01,28,00,12,1.30
2021,01,28,00,13,1.30
2021,01,28,00,14,1.30
2021,01,28,00,15,1.30
2021,01,28,00,16,1.40
2021,01,28,00,17,1.40
2021,01,28,00,18,1.40
2021,01,28,00,19,1.30
2021,01,28,00,20,1.30
2021,01,28,00,21,1.30
2021,01,28,00,22,1.40
2021,01,28,00,23,1.30
2021,01,28,00,24,1.40
2021,01,28,00,25,1.30
2021,01,28,00,26,1.30
2021,01,28,00,27,1.30
2021,01,28,00,28,1.30
2021,01,28,00,29,1.30
2021,01,28,00,30,1.30
2021,01,28,00,31,1.30
2021,01,28,00,32,1.30
2021,01,28,00,33,1.30
2021,01,28,00,34,1.30
2021,01,28,00,35,1.30
2021,01,28,00,36,1.30
2021,01,28,00,37,1.30
2021,01,28,00,38,1.30
2021,01,28,00,39,1.30
2021,01,28,00,40,1.30
2021,01,28,00,41,1.30
2021,01,28,00,42,1.30
2021,01,28,00,43,1.30
2021,01,28,00,44,1.30
2021,01,28,00,45,1.30
2021,01,28,00,46,1.30
2021,01,28,00,47,1.30
2021,01,28,00,48,1.30
2021,01,28,00,49,1.40
2021,01,28,00,50,1.30
2021,01,28,00,51,1.30
2021,01,28,00,52,1.30
2021,01,28,00,53,1.30
2021,01,28,00,54,1.30
2021,01,28,00,55,1.30
2021,01,28,00,56,1.30
2021,01,28,00,57,1.30
2021,01,28,00,58,1.30
2021,01,28,00,59,1.40
2021,01,28,01,00,1.30
2021,01,28,01,01,1.30
2021,01,28,01,02,1.30
2021,01,28,01,03,1.30
2021,01,28,01,04,1.30
2021,01,28,01,05,1.30
2021,01,28,01,06,1.30
2021,01,28,01,07,1.30
2021,01,28,01,08,1.30
2021,01,28,01,09,1.30
2021,01,28,01,10,1.30
2021,01,28,01,11,1.30
2021,01,28,01,12,1.30
2021,01,28,01,13,1.30
2021,01,28,01,14,1.30
2021,01,28,01,15,1.30
2021,01,28,01,16,1.30
2021,01,28,01,17,1.30
2021,01,28,01,18,1.30
2021,01,28,01,19,1.30
2021,01,28,01,20,1.30
2021,01,28,01,21,1.30
2021,01,28,01,22,1.30
2021,01,28,01,23,1.30
2021,01,28,01,24,1.30
2021,01,28,01,25,1.30
2021,01,28,01,26,1.30
2021,01,28,01,27,1.30
2021,01,28,01,28,1.30
2021,01,28,01,29,1.30
2021,01,28,01,30,1.30
2021,01,28,01,31,1.30
2021,01,28,01,32,1.30
2021,01,28,01,33,1.30
2021,01,28,01,34,1.30
2021,01,28,01,35,1.20
2021,01,28,01,36,1.30
2021,01,28,01,37,1.30
2021,01,28,01,38,1.20
2021,01,28,01,39,1.20
2021,01,28,01,40,1.20
2021,01,28,01,41,1.20
2021,01,28,01,42,1.20
2021,01,28,01,43,1.20
2021,01,28,01,44,1.20
2021,01,28,01,45,1.20
2021,01,28,01,46,1.20
2021,01,28,01,47,1.20
2021,01,28,01,48,1.20
2021,01,28,01,49,1.20
2021,01,28,01,50,1.20
2021,01,28,01,51,1.20
2021,01,28,01,52,1.20
2021,01,28,01,53,1.20
2021,01,28,01,54,1.20
2021,01,28,01,55,1.20
2021,01,28,01,56,1.20
2021,01,28,01,57,1.20
2021,01,28,01,58,1.20
2021,01,28,01,59,1.20
2021,01,28,02,00,1.20
2021,01,28,02,01,1.20
2021,01,28,02,02,1.20
2021,01,28,02,03,1.20
2021,01,28,02,04,1.20
2021,01,28,02,05,1.20
2021,01,28,02,06,1.20
2021,01,28,02,07,1.20
2021,01,28,02,08,1.20
2021,01,28,02,09,1.20
2021,01,28,02,10,1.20
2021,01,28,02,11,1.20
2021,01,28,02,12,1.20
2021,01,28,02,13,1.20
2021,01,28,02,14,1.20
2021,01,28,02,15,1.20
2021,01,28,02,16,1.20
2021,01,28,02,17,1.20
2021,01,28,02,18,1.20
2021,01,28,02,19,1.20
2021,01,28,02,20,1.20
2021,01,28,02,21,1.20
2021,01,28,02,22,1.20
2021,01,28,02,23,1.20
2021,01,28,02,24,1.20
2021,01,28,02,25,1.20
2021,01,28,02,26,1.20
2021,01,28,02,27,1.20
2021,01,28,02,28,1.20
2021,01,28,02,29,1.20
2021,01,28,02,30,1.20
2021,01,28,02,31,1.20
2021,01,28,02,32,1.20
2021,01,28,02,33,1.20
2021,01,28,02,34,1.20
2021,01,28,02,35,1.20
2021,01,28,02,36,1.20
2021,01,28,02,37,1.20
2021,01,28,02,38,1.20
2021,01,28,02,39,1.30
2021,01,28,02,40,1.30
2021,01,28,02,41,1.30
2021,01,28,02,42,1.30
2021,01,28,02,43,1.30
2021,01,28,02,44,1.30
2021,01,28,02,45,1.30
2021,01,28,02,46,1.30
2021,01,28,02,47,1.30
2021,01,28,02,48,1.30
2021,01,28,02,49,1.30
2021,01,28,02,50,1.30
2021,01,28,02,51,1.30
2021,01,28,02,52,1.30
2021,01,28,02,53,1.30
2021,01,28,02,54,1.30
2021,01,28,02,55,1.30
2021,01,28,02,56,1.30
2021,01,28,02,57,1.30
2021,01,28,02,58,1.30
2021,01,28,02,59,1.30
2021,01,28,03,00,1.30
2021,01,28,03,01,1.30
2021,01,28,03,02,1.30
2021,01,28,03,03,1.30
2021,01,28,03,04,1.30
2021,01,28,03,05,1.30
2021,01,28,03,06,1.30
2021,01,28,03,07,1.30
2021,01,28,03,08,1.30
2021,01,28,03,09,1.40
2021,01,28,03,10,1.30
2021,01,28,03,11,1.40
2021,01,28,03,12,1.40
2021,01,28,03,13,1.40
2021,01,28,03,14,1.40
2021,01,28,03,15,1.40
2021,01,28,03,16,1.40
2021,01,28,03,17,1.40
2021,01,28,03,18,1.40
2021,01,28,03,19,1.40
2021,01,28,03,20,1.40
2021,01,28,03,21,1.40
2021,01,28,03,22,1.50
2021,01,28,03,23,1.50
2021,01,28,03,24,1.50
2021,01,28,03,25,1.50
2021,01,28,03,26,1.40
2021,01,28,03,27,1.40
2021,01,28,03,28,1.40
2021,01,28,03,29,1.40
2021,01,28,03,30,1.40
2021,01,28,03,31,1.50
2021,01,28,03,32,1.50
2021,01,28,03,33,1.50
2021,01,28,03,34,1.50
2021,01,28,03,35,1.50
2021,01,28,03,36,1.50
2021,01,28,03,37,1.50
2021,01,28,03,38,1.50
2021,01,28,03,39,1.50
2021,01,28,03,40,1.50
2021,01,28,03,41,1.50
2021,01,28,03,42,1.50
2021,01,28,03,43,1.50
2021,01,28,03,44,1.50
2021,01,28,03,45,1.50
2021,01,28,03,46,1.50
2021,01,28,03,47,1.40
2021,01,28,03,48,1.40
2021,01,28,03,49,1.40
2021,01,28,03,50,1.40
2021,01,28,03,51,1.40
2021,01,28,03,52,1.40
2021,01,28,03,53,1.40
2021,01,28,03,54,1.40
2021,01,28,03,55,1.50
2021,01,28,03,56,1.50
2021,01,28,03,57,1.50
2021,01,28,03,58,1.50
2021,01,28,03,59,1.50
2021,01,28,04,00,1.50
2021,01,28,04,01,1.50
2021,01,28,04,02,1.50
2021,01,28,04,03,1.50
2021,01,28,04,04,1.50
2021,01,28,04,05,1.50
2021,01,28,04,06,1.50
2021,01,28,04,07,1.50
2021,01,28,04,08,1.50
2021,01,28,04,09,1.50
2021,01,28,04,10,1.50
2021,01,28,04,11,1.50
2021,01,28,04,12,1.50
2021,01,28,04,13,1.50
2021,01,28,04,14,1.50
2021,01,28,04,15,1.50
2021,01,28,04,16,1.50
2021,01,28,04,17,1.50
2021,01,28,04,18,1.50
2021,01,28,04,19,1.50
2021,01,28,04,20,1.50
2021,01,28,04,21,1.60
2021,01,28,04,22,1.50
2021,01,28,04,23,1.50
2021,01,28,04,24,1.50
2021,01,28,04,25,1.50
2021,01,28,04,26,1.50
2021,01,28,04,27,1.50
2021,01,28,04,28,1.50
2021,01,28,04,29,1.50
2021,01,28,04,30,1.50
2021,01,28,04,31,1.50
2021,01,28,04,32,1.50
2021,01,28,04,33,1.50
2021,01,28,04,34,1.50
2021,01,28,04,35,1.50
2021,01,28,04,36,1.50
2021,01,28,04,37,1.50
2021,01,28,04,38,1.50
2021,01,28,04,39,1.50
2021,01,28,04,40,1.50
2021,01,28,04,41,1.50
2021,01,28,04,42,1.50
2021,01,28,04,43,1.50
2021,01,28,04,44,1.50
2021,01,28,04,45,1.50
2021,01,28,04,46,1.50
2021,01,28,04,47,1.50
2021,01,28,04,48,1.50
2021,01,28,04,49,1.50
2021,01,28,04,50,1.50
2021,01,28,04,51,1.50
2021,01,28,04,52,1.50
2021,01,28,04,53,1.50
2021,01,28,04,54,1.50
2021,01,28,04,55,1.50
2021,01,28,04,56,1.50
2021,01,28,04,57,1.50
2021,01,28,04,58,1.50
2021,01,28,04,59,1.50
2021,01,28,05,00,1.50
2021,01,28,05,01,1.50
2021,01,28,05,02,1.50
2021,01,28,05,03,1.50
2021,01,28,05,04,1.50
2021,01,28,05,05,1.60
2021,01,28,05,06,1.60
2021,01,28,05,07,1.60
2021,01,28,05,08,1.50
2021,01,28,05,09,1.60
2021,01,28,05,10,1.50
2021,01,28,05,11,1.50
2021,01,28,05,12,1.60
2021,01,28,05,13,1.50
2021,01,28,05,14,1.50
2021,01,28,05,15,1.60
2021,01,28,05,16,1.60
2021,01,28,05,17,1.60
2021,01,28,05,18,1.60
2021,01,28,05,19,1.60
2021,01,28,05,20,1.60
2021,01,28,05,21,1.60
2021,01,28,05,22,1.60
2021,01,28,05,23,1.60
2021,01,28,05,24,1.60
2021,01,28,05,25,1.60
2021,01,28,05,26,1.60
2021,01,28,05,27,1.60
2021,01,28,05,28,1.60
2021,01,28,05,29,1.60
2021,01,28,05,30,1.60
2021,01,28,05,31,1.60
2021,01,28,05,32,1.60
2021,01,28,05,33,1.60
2021,01,28,05,34,1.60
2021,01,28,05,35,1.50
2021,01,28,05,36,1.50
2021,01,28,05,37,1.50
2021,01,28,05,38,1.50
2021,01,28,05,39,1.50
2021,01,28,05,40,1.50
2021,01,28,05,41,1.50
2021,01,28,05,42,1.50
2021,01,28,05,43,1.50
2021,01,28,05,44,1.50
2021,01,28,05,45,1.50
2021,01,28,05,46,1.50
2021,01,28,05,47,1.50
2021,01,28,05,48,1.50
2021,01,28,05,49,1.50
2021,01,28,05,50,1.50
2021,01,28,05,51,1.40
2021,01,28,05,52,1.40
2021,01,28,05,53,1.40
2021,01,28,05,54,1.40
2021,01,28,05,55,1.40
2021,01,28,05,56,1.40
2021,01,28,05,57,1.40
2021,01,28,05,58,1.40
2021,01,28,05,59,1.40
2021,01,28,06,00,1.40
2021,01,28,06,01,1.40
2021,01,28,08,50,1.20
2021,01,28,08,51,1.20
2021,01,28,08,52,1.20
2021,01,28,08,53,1.20
2021,01,28,08,54,1.20
2021,01,28,08,55,1.20
2021,01,28,08,56,1.20
2021,01,28,08,57,1.20
2021,01,28,08,58,1.30
2021,01,28,08,59,1.30
2021,01,28,09,00,1.30
2021,01,28,09,01,1.30
2021,01,28,09,02,1.30
2021,01,28,09,03,1.30
2021,01,28,09,04,1.30
2021,01,28,09,05,1.30
2021,01,28,09,06,1.30
2021,01,28,09,07,1.30
2021,01,28,09,08,1.30
2021,01,28,09,09,1.40
2021,01,28,09,10,1.40
2021,01,28,09,11,1.40
2021,01,28,09,12,1.40
2021,01,28,09,13,1.40
2021,01,28,09,14,1.40
2021,01,28,09,16,1.40
2021,01,28,09,17,1.40
2021,01,28,09,18,1.40
2021,01,28,09,19,1.40
2021,01,28,09,20,1.40
2021,01,28,09,21,1.40
2021,01,28,09,22,1.40
2021,01,28,09,23,1.40
2021,01,28,09,25,1.40
2021,01,28,09,26,1.40
2021,01,28,09,27,1.40
2021,01,28,09,28,1.40
2021,01,28,09,30,1.40
2021,01,28,09,31,1.40
2021,01,28,09,32,1.40
2021,01,28,09,34,1.40
2021,01,28,09,35,1.40
2021,01,28,09,37,1.40
2021,01,28,09,38,1.40
2021,01,28,09,39,1.40
2021,01,28,09,40,1.40
2021,01,28,09,42,1.60
2021,01,28,09,43,1.60
2021,01,28,09,45,1.60
2021,01,28,09,47,1.70
2021,01,28,09,48,1.70
2021,01,28,09,50,1.70
2021,01,28,09,51,1.80
2021,01,28,09,52,1.80
2021,01,28,09,55,1.80
2021,01,28,09,59,1.80
2021,01,28,10,00,1.80
2021,01,28,10,01,1.90
2021,01,28,10,02,1.80
2021,01,28,10,03,1.80
2021,01,28,10,04,1.80
2021,01,28,10,05,1.80
2021,01,28,10,07,1.80
2021,01,28,10,08,1.80
2021,01,28,10,10,1.80
2021,01,28,10,12,1.80
2021,01,28,10,13,1.80
2021,01,28,10,15,1.80
2021,01,28,10,16,1.80
2021,01,28,10,18,1.80
2021,01,28,10,20,1.80
2021,01,28,10,21,1.80
2021,01,28,10,22,1.90
2021,01,28,10,24,1.90
2021,01,28,10,26,2.00
2021,01,28,10,27,2.10
2021,01,28,10,28,2.10
2021,01,28,10,29,2.10
2021,01,28,10,31,2.10
2021,01,28,10,32,2.10
2021,01,28,10,33,2.10
2021,01,28,10,34,2.10
2021,01,28,10,35,2.20
2021,01,28,10,36,2.20
2021,01,28,10,37,2.20
2021,01,28,10,38,2.20
2021,01,28,10,39,2.20
2021,01,28,10,40,2.20
2021,01,28,10,41,2.30
2021,01,28,10,42,2.30
2021,01,28,10,43,2.30
2021,01,28,10,44,2.30
2021,01,28,10,45,2.40
2021,01,28,10,46,2.40
2021,01,28,10,47,2.40
2021,01,28,10,48,2.40
2021,01,28,10,49,2.40
2021,01,28,10,50,2.50
2021,01,28,10,51,2.50
2021,01,28,10,52,2.60
2021,01,28,10,53,2.60
2021,01,28,10,54,2.60
2021,01,28,10,56,2.60
2021,01,28,10,57,2.70
2021,01,28,10,58,2.70
2021,01,28,10,59,2.70
2021,01,28,11,02,2.80
2021,01,28,11,03,2.80
2021,01,28,11,04,2.80
2021,01,28,11,06,2.80
2021,01,28,11,07,2.80
2021,01,28,11,08,2.90
2021,01,28,11,10,2.90
2021,01,28,11,12,3.00
2021,01,28,11,13,3.00
2021,01,28,11,15,3.10
2021,01,28,11,16,3.10
2021,01,28,11,18,3.10
2021,01,28,11,19,3.10
2021,01,28,11,21,3.20
2021,01,28,11,23,3.20
2021,01,28,11,26,3.30
2021,01,28,11,27,3.30
2021,01,28,11,28,3.30
2021,01,28,11,30,3.40
2021,01,28,11,32,3.40
2021,01,28,11,33,3.40
2021,01,28,11,35,3.40
2021,01,28,11,37,3.50
2021,01,28,11,39,3.60
2021,01,28,11,40,3.60
2021,01,28,11,41,3.70
2021,01,28,11,42,3.70
2021,01,28,11,43,3.70
2021,01,28,11,44,3.80
2021,01,28,11,45,3.80
2021,01,28,11,46,3.80
2021,01,28,11,47,3.80
2021,01,28,11,48,3.80
2021,01,28,11,50,3.90
2021,01,28,11,52,4.10
2021,01,28,11,54,4.20
2021,01,28,11,55,4.20
2021,01,28,11,56,4.20
2021,01,28,11,57,4.20
2021,01,28,11,58,4.30
2021,01,28,11,59,4.30
2021,01,28,12,02,4.30
2021,01,28,12,03,4.40
2021,01,28,12,04,4.40
2021,01,28,12,06,4.60
2021,01,28,12,08,4.50
2021,01,28,12,09,4.50
2021,01,28,12,10,4.50
2021,01,28,12,11,4.60
2021,01,28,12,12,4.60
2021,01,28,12,13,4.60
2021,01,28,12,14,4.60
2021,01,28,12,15,4.70
2021,01,28,12,17,4.70
2021,01,28,12,19,4.70
2021,01,28,12,20,4.80
2021,01,28,12,21,4.80
2021,01,28,12,22,4.80
2021,01,28,12,23,4.80
2021,01,28,12,24,4.90
2021,01,28,12,26,4.90
2021,01,28,12,28,5.00
2021,01,28,12,30,5.10
2021,01,28,12,31,5.10
2021,01,28,12,32,5.10
2021,01,28,12,33,5.20
2021,01,28,12,34,5.20
2021,01,28,12,35,5.20
2021,01,28,12,37,5.30
2021,01,28,12,38,5.30
2021,01,28,12,40,5.40
2021,01,28,12,42,5.40
2021,01,28,12,43,5.50
2021,01,28,12,44,5.50
2021,01,28,12,45,5.50
2021,01,28,12,47,5.60
2021,01,28,12,48,5.60
2021,01,28,12,49,5.60
2021,01,28,12,50,5.60
2021,01,28,12,51,5.60
2021,01,28,12,56,5.70
2021,01,28,12,57,5.70
2021,01,28,12,59,5.70
2021,01,28,13,00,5.70
2021,01,28,13,01,5.70
2021,01,28,13,02,5.70
2021,01,28,13,03,5.70
2021,01,28,13,04,5.70
2021,01,28,13,06,5.70
2021,01,28,13,07,5.70
2021,01,28,13,08,5.70
2021,01,28,13,10,5.70
2021,01,28,13,11,5.70
2021,01,28,13,12,5.70
2021,01,28,13,13,5.70
2021,01,28,13,14,5.80
2021,01,28,13,15,5.80
2021,01,28,13,16,5.80
2021,01,28,13,17,5.80
2021,01,28,13,18,5.80
2021,01,28,13,20,5.80
2021,01,28,13,21,5.80
2021,01,28,13,22,5.90
2021,01,28,13,23,5.90
2021,01,28,13,25,5.90
2021,01,28,13,26,5.90
2021,01,28,13,27,5.80
2021,01,28,13,28,5.80
2021,01,28,13,29,5.80
2021,01,28,13,30,5.80
2021,01,28,13,31,5.80
2021,01,28,13,33,5.80
2021,01,28,13,34,5.80
2021,01,28,13,35,5.80
2021,01,28,13,37,5.80
2021,01,28,13,38,5.80
2021,01,28,13,39,5.80
2021,01,28,13,40,5.70
2021,01,28,13,41,5.70
2021,01,28,13,43,5.70
2021,01,28,13,45,5.80
2021,01,28,13,47,5.80
2021,01,28,13,48,5.80
2021,01,28,13,49,5.80
2021,01,28,13,51,5.80
2021,01,28,13,53,5.80
2021,01,28,13,55,5.80
2021,01,28,13,56,5.80
2021,01,28,13,57,5.80
2021,01,28,13,58,5.80
2021,01,28,13,59,5.80
2021,01,28,14,00,5.80
2021,01,28,14,02,5.80
2021,01,28,14,04,5.80
2021,01,28,14,05,5.80
2021,01,28,14,07,5.70
2021,01,28,14,09,5.80
2021,01,28,14,10,5.80
2021,01,28,14,11,5.80
2021,01,28,14,12,5.80
2021,01,28,14,13,5.80
2021,01,28,14,14,5.80
2021,01,28,14,15,5.80
2021,01,28,14,16,5.90
2021,01,28,14,18,5.90
2021,01,28,14,20,5.90
2021,01,28,14,21,5.90
2021,01,28,14,22,5.90
2021,01,28,14,24,6.00
2021,01,28,14,25,6.00
2021,01,28,14,26,6.00
2021,01,28,14,27,5.90
2021,01,28,14,29,5.90
2021,01,28,14,30,5.90
2021,01,28,14,31,5.90
2021,01,28,14,32,5.90
2021,01,28,14,34,5.90
2021,01,28,14,35,5.90
2021,01,28,14,36,5.90
2021,01,28,14,37,5.90
2021,01,28,14,38,5.90
2021,01,28,14,39,5.90
2021,01,28,14,40,5.90
2021,01,28,14,41,5.90
2021,01,28,14,42,5.90
2021,01,28,14,43,6.00
2021,01,28,14,44,6.00
2021,01,28,14,46,6.10
2021,01,28,14,48,6.10
2021,01,28,14,51,6.10
2021,01,28,14,53,6.10
2021,01,28,14,54,6.10
2021,01,28,14,55,6.10
2021,01,28,14,56,6.10
2021,01,28,14,58,6.20
2021,01,28,14,59,6.10
2021,01,28,15,00,6.20
2021,01,28,15,01,6.10
2021,01,28,15,02,6.10
2021,01,28,15,03,6.10
2021,01,28,15,04,6.10
2021,01,28,15,05,6.10
2021,01,28,15,06,6.10
2021,01,28,15,08,6.20
2021,01,28,15,10,6.20
2021,01,28,15,11,6.20
2021,01,28,15,12,6.20
2021,01,28,15,14,6.20
2021,01,28,15,15,6.20
2021,01,28,15,16,6.20
2021,01,28,15,17,6.20
2021,01,28,15,18,6.20
2021,01,28,15,19,6.20
2021,01,28,15,20,6.20
2021,01,28,15,21,6.20
2021,01,28,15,22,6.20
2021,01,28,15,24,6.20
2021,01,28,15,25,6.20
2021,01,28,15,27,6.20
2021,01,28,15,28,6.20
2021,01,28,15,30,6.20
2021,01,28,15,31,6.20
2021,01,28,15,32,6.20
2021,01,28,15,34,6.20
2021,01,28,15,35,6.20
2021,01,28,15,36,6.30
2021,01,28,15,37,6.20
2021,01,28,15,38,6.20
2021,01,28,15,39,6.20
2021,01,28,15,40,6.20
2021,01,28,15,41,6.20
2021,01,28,15,42,6.20
2021,01,28,15,43,6.20
2021,01,28,15,45,6.20
2021,01,28,15,46,6.20
2021,01,28,15,47,6.10
2021,01,28,15,48,6.10
2021,01,28,15,49,6.10
2021,01,28,15,50,6.10
2021,01,28,15,51,6.10
2021,01,28,15,52,6.00
2021,01,28,15,54,6.00
2021,01,28,15,56,6.00
2021,01,28,15,57,6.00
2021,01,28,15,58,5.90
2021,01,28,16,00,5.90
2021,01,28,16,01,5.90
2021,01,28,16,02,5.90
2021,01,28,16,03,5.90
2021,01,28,16,04,5.80
2021,01,28,16,05,5.80
2021,01,28,16,06,5.80
2021,01,28,16,07,5.80
2021,01,28,16,08,5.80
2021,01,28,16,09,5.80
2021,01,28,16,10,5.80
2021,01,28,16,11,5.70
2021,01,28,16,12,5.70
2021,01,28,16,13,5.70
2021,01,28,16,15,5.70
2021,01,28,16,16,5.70
2021,01,28,16,17,5.70
2021,01,28,16,18,5.70
2021,01,28,16,19,5.70
2021,01,28,16,21,5.70
2021,01,28,16,22,5.70
2021,01,28,16,23,5.60
2021,01,28,16,24,5.60
2021,01,28,16,25,5.60
2021,01,28,16,26,5.60
2021,01,28,16,27,5.60
2021,01,28,16,28,5.60
2021,01,28,16,29,5.60
2021,01,28,16,30,5.60
2021,01,28,16,31,5.60
2021,01,28,16,32,5.60
2021,01,28,16,33,5.50
2021,01,28,16,34,5.50
2021,01,28,16,35,5.50
2021,01,28,16,36,5.50
2021,01,28,16,38,5.40
2021,01,28,16,39,5.40
2021,01,28,16,40,5.40
2021,01,28,16,41,5.40
2021,01,28,16,42,5.40
2021,01,28,16,43,5.30
2021,01,28,16,44,5.30
2021,01,28,16,45,5.30
2021,01,28,16,46,5.30
2021,01,28,16,48,5.20
2021,01,28,16,50,5.20
2021,01,28,16,51,5.10
2021,01,28,16,53,5.10
2021,01,28,16,54,5.10
2021,01,28,16,55,5.00
2021,01,28,16,56,4.90
2021,01,28,16,58,4.90
2021,01,28,16,59,4.90
2021,01,28,17,00,4.90
2021,01,28,17,01,4.80
2021,01,28,17,02,4.80
2021,01,28,17,03,4.80
2021,01,28,17,04,4.80
2021,01,28,17,06,4.80
2021,01,28,17,07,4.80
2021,01,28,17,08,4.80
2021,01,28,17,09,4.80
2021,01,28,17,11,4.80
2021,01,28,17,12,4.70
2021,01,28,17,13,4.70
2021,01,28,17,14,4.70
2021,01,28,17,16,4.70
2021,01,28,17,17,4.70
2021,01,28,17,18,4.70
2021,01,28,17,19,4.70
2021,01,28,17,20,4.70
2021,01,28,17,21,4.70
2021,01,28,17,23,4.70
2021,01,28,17,24,4.70
2021,01,28,17,26,4.60
2021,01,28,17,27,4.60
2021,01,28,17,28,4.60
2021,01,28,17,29,4.50
2021,01,28,17,30,4.50
2021,01,28,17,31,4.40
2021,01,28,17,32,4.40
2021,01,28,17,33,4.40
2021,01,28,17,34,4.40
2021,01,28,17,35,4.40
2021,01,28,17,36,4.30
2021,01,28,17,37,4.30
2021,01,28,17,38,4.30
2021,01,28,17,39,4.30
2021,01,28,17,40,4.30
2021,01,28,17,42,4.20
2021,01,28,17,43,4.20
2021,01,28,17,44,4.20
2021,01,28,17,45,4.20
2021,01,28,17,46,4.10
2021,01,28,17,47,4.10
2021,01,28,17,48,4.10
2021,01,28,17,49,4.10
2021,01,28,17,51,4.10
2021,01,28,17,52,4.00
2021,01,28,17,53,4.00
2021,01,28,17,54,4.00
2021,01,28,17,55,3.90
2021,01,28,17,56,3.90
2021,01,28,17,57,3.90
2021,01,28,17,58,3.90
2021,01,28,17,59,3.90
2021,01,28,18,00,3.90
2021,01,28,18,01,3.90
2021,01,28,18,02,3.90
2021,01,28,18,03,3.80
2021,01,28,18,04,3.80
2021,01,28,18,05,3.80
2021,01,28,18,06,3.80
2021,01,28,18,07,3.80
2021,01,28,18,09,3.80
2021,01,28,18,10,3.80
2021,01,28,18,11,3.70
2021,01,28,18,12,3.70
2021,01,28,18,13,3.70
2021,01,28,18,15,3.70
2021,01,28,18,16,3.70
2021,01,28,18,17,3.60
2021,01,28,18,18,3.60
2021,01,28,18,19,3.60
2021,01,28,18,20,3.60
2021,01,28,18,21,3.60
2021,01,28,18,22,3.60
2021,01,28,18,23,3.60
2021,01,28,18,24,3.60
2021,01,28,18,25,3.60
2021,01,28,18,26,3.60
2021,01,28,18,28,3.60
2021,01,28,18,29,3.60
2021,01,28,18,30,3.50
2021,01,28,18,31,3.50
2021,01,28,18,33,3.50
2021,01,28,18,35,3.40
2021,01,28,18,36,3.40
2021,01,28,18,37,3.40
2021,01,28,18,38,3.40
2021,01,28,18,40,3.40
2021,01,28,18,43,3.30
2021,01,28,18,44,3.30
2021,01,28,18,46,3.30
2021,01,28,18,47,3.30
2021,01,28,18,48,3.30
2021,01,28,18,49,3.30
2021,01,28,18,50,3.30
2021,01,28,18,51,3.30
2021,01,28,18,53,3.30
2021,01,28,18,55,3.20
2021,01,28,18,56,3.20
2021,01,28,18,57,3.20
2021,01,28,18,58,3.20
2021,01,28,18,59,3.20
2021,01,28,19,00,3.20
2021,01,28,19,02,3.20
2021,01,28,19,03,3.20
2021,01,28,19,04,3.20
2021,01,28,19,05,3.20
2021,01,28,19,06,3.20
2021,01,28,19,09,3.20
2021,01,28,19,11,3.20
2021,01,28,19,12,3.20
2021,01,28,19,13,3.10
2021,01,28,19,14,3.20
2021,01,28,19,15,3.20
2021,01,28,19,16,3.20
2021,01,28,19,18,3.10
2021,01,28,19,19,3.10
2021,01,28,19,20,3.10
2021,01,28,19,21,3.10
2021,01,28,19,23,3.10
2021,01,28,19,24,3.10
2021,01,28,19,25,3.10
2021,01,28,19,26,3.10
2021,01,28,19,28,3.10
2021,01,28,19,29,3.10
2021,01,28,19,30,3.10
2021,01,28,19,31,3.10
2021,01,28,19,32,3.10
2021,01,28,19,33,3.10
2021,01,28,19,35,3.10
2021,01,28,19,36,3.10
2021,01,28,19,37,3.10
2021,01,28,19,39,3.10
2021,01,28,19,41,3.10
2021,01,28,19,42,3.00
2021,01,28,19,43,3.00
2021,01,28,19,44,3.00
2021,01,28,19,45,3.00
2021,01,28,19,46,3.00
2021,01,28,19,48,3.00
2021,01,28,19,49,3.00
2021,01,28,19,50,3.00
2021,01,28,19,51,3.00
2021,01,28,19,53,3.00
2021,01,28,19,54,3.00
2021,01,28,19,55,3.00
2021,01,28,19,56,3.00
2021,01,28,19,57,3.00
2021,01,28,19,59,3.00
2021,01,28,20,00,3.00
2021,01,28,20,01,2.90
2021,01,28,20,02,2.90
2021,01,28,20,03,2.90
2021,01,28,20,04,2.90
2021,01,28,20,05,2.90
2021,01,28,20,06,2.90
2021,01,28,20,08,2.90
2021,01,28,20,09,2.90
2021,01,28,20,10,2.90
2021,01,28,20,12,2.90
2021,01,28,20,13,2.90
2021,01,28,20,15,2.90
2021,01,28,20,16,2.90
2021,01,28,20,17,2.90
2021,01,28,20,18,2.90
2021,01,28,20,19,2.90
2021,01,28,20,20,2.90
2021,01,28,20,21,2.80
2021,01,28,20,22,2.90
2021,01,28,20,23,2.80
2021,01,28,20,25,2.80
2021,01,28,20,26,2.80
2021,01,28,20,27,2.80
2021,01,28,20,28,2.80
2021,01,28,20,29,2.80
2021,01,28,20,31,2.80
2021,01,28,20,33,2.80
2021,01,28,20,34,2.80
2021,01,28,20,36,2.80
2021,01,28,20,38,2.80
2021,01,28,20,40,2.70
2021,01,28,20,41,2.70
2021,01,28,20,43,2.70
2021,01,28,20,44,2.70
2021,01,28,20,45,2.70
2021,01,28,20,46,2.70
2021,01,28,20,47,2.70
2021,01,28,20,48,2.70
2021,01,28,20,49,2.70
2021,01,28,20,50,2.70
2021,01,28,20,51,2.70
2021,01,28,20,52,2.70
2021,01,28,20,53,2.70
2021,01,28,20,54,2.70
2021,01,28,20,55,2.70
2021,01,28,20,56,2.70
2021,01,28,20,58,2.60
2021,01,28,20,59,2.60
2021,01,28,21,00,2.60
2021,01,28,21,01,2.60
2021,01,28,21,02,2.60
2021,01,28,21,03,2.60
2021,01,28,21,04,2.60
2021,01,28,21,05,2.60
2021,01,28,21,06,2.60
2021,01,28,21,07,2.60
2021,01,28,21,09,2.60
2021,01,28,21,10,2.50
2021,01,28,21,11,2.50
2021,01,28,21,12,2.50
2021,01,28,21,13,2.50
2021,01,28,21,14,2.50
2021,01,28,21,15,2.40
2021,01,28,21,16,2.40
2021,01,28,21,18,2.40
2021,01,28,21,19,2.40
2021,01,28,21,20,2.40
2021,01,28,21,21,2.40
2021,01,28,21,22,2.40
2021,01,28,21,23,2.30
2021,01,28,21,24,2.30
2021,01,28,21,25,2.30
2021,01,28,21,26,2.30
2021,01,28,21,27,2.30
2021,01,28,21,28,2.30
2021,01,28,21,29,2.30
2021,01,28,21,30,2.30
2021,01,28,21,31,2.30
2021,01,28,21,33,2.20
2021,01,28,21,34,2.20
2021,01,28,21,35,2.20
2021,01,28,21,36,2.20
2021,01,28,21,37,2.20
2021,01,28,21,38,2.20
2021,01,28,21,39,2.20
2021,01,28,21,41,2.10
2021,01,28,21,42,2.10
2021,01,28,21,43,2.10
2021,01,28,21,44,2.10
2021,01,28,21,45,2.10
2021,01,28,21,46,2.10
2021,01,28,21,47,2.10
2021,01,28,21,48,2.10
2021,01,28,21,49,2.10
2021,01,28,21,50,2.10
2021,01,28,21,51,2.10
2021,01,28,21,52,2.10
2021,01,28,21,53,2.10
2021,01,28,21,54,2.10
2021,01,28,21,55,2.10
2021,01,28,21,56,2.10
2021,01,28,21,57,2.10
2021,01,28,21,58,2.00
2021,01,28,21,59,2.10
2021,01,28,22,00,2.00
2021,01,28,22,01,2.00
2021,01,28,22,02,2.00
2021,01,28,22,03,2.00
2021,01,28,22,04,2.00
2021,01,28,22,05,2.00
2021,01,28,22,06,2.00
2021,01,28,22,07,2.00
2021,01,28,22,08,2.00
2021,01,28,22,09,2.00
2021,01,28,22,10,2.00
2021,01,28,22,11,2.00
2021,01,28,22,12,2.00
2021,01,28,22,13,2.00
2021,01,28,22,14,2.00
2021,01,28,22,15,2.00
2021,01,28,22,16,2.00
2021,01,28,22,17,2.00
2021,01,28,22,18,2.00
2021,01,28,22,19,2.00
2021,01,28,22,20,2.00
2021,01,28,22,21,2.00
2021,01,28,22,23,2.00
2021,01,28,22,24,1.90
2021,01,28,22,25,1.90
2021,01,28,22,26,1.90
2021,01,28,22,27,1.90
2021,01,28,22,29,1.90
2021,01,28,22,30,1.90
2021,01,28,22,31,1.90
2021,01,28,22,32,1.90
2021,01,28,22,33,1.90
2021,01,28,22,34,1.90
2021,01,28,22,35,1.90
2021,01,28,22,36,1.90
2021,01,28,22,37,1.90
2021,01,28,22,38,1.90
2021,01,28,22,39,1.90
2021,01,28,22,40,1.90
2021,01,28,22,41,1.90
2021,01,28,22,42,1.90
2021,01,28,22,43,1.90
2021,01,28,22,44,1.90
2021,01,28,22,45,1.90
2021,01,28,22,46,1.90
2021,01,28,22,48,1.90
2021,01,28,22,49,1.90
2021,01,28,22,50,1.90
2021,01,28,22,51,1.90
2021,01,28,22,53,1.90
2021,01,28,22,54,2.00
2021,01,28,22,55,2.00
2021,01,28,22,56,2.00
2021,01,28,22,57,2.00
2021,01,28,22,58,2.00
2021,01,28,22,59,2.00
2021,01,28,23,00,2.00
2021,01,28,23,01,2.00
2021,01,28,23,02,2.00
2021,01,28,23,03,2.00
2021,01,28,23,04,2.00
2021,01,28,23,05,2.00
2021,01,28,23,06,2.00
2021,01,28,23,07,2.00
2021,01,28,23,08,2.00
2021,01,28,23,09,2.00
2021,01,28,23,10,2.00
2021,01,28,23,11,2.00
2021,01,28,23,12,2.00
2021,01,28,23,14,1.90
2021,01,28,23,16,2.00
2021,01,28,23,17,2.00
2021,01,28,23,18,1.90
2021,01,28,23,19,1.90
2021,01,28,23,20,2.00
2021,01,28,23,21,2.00
2021,01,28,23,22,2.00
2021,01,28,23,23,2.00
2021,01,28,23,24,2.00
2021,01,28,23,25,2.00
2021,01,28,23,26,2.00
2021,01,28,23,27,2.00
2021,01,28,23,28,2.10
2021,01,28,23,29,2.10
2021,01,28,23,30,2.10
2021,01,28,23,31,2.10
2021,01,28,23,32,2.10
2021,01,28,23,33,2.10
2021,01,28,23,34,2.10
2021,01,28,23,35,2.10